Voltar ao catálogo

SL-24 PLAT

AtivoPO
NORAD 40049·DEBRIS·🇷🇺 Russia

Lançado Jun 19, 2014 de Dombarovsky

Loading…

Próximas Passagens (próximas 24 horas)

TLE

AtualizadoSource: Space-Track

Época: Sep 14, 2026, 23:26 UTC

1 40049U 14033AR  26257.97650622  .00004461  00000-0  27074-3 0  9995
2 40049  98.1042 261.8218 0005004 316.6868  43.3966 15.11082681665773

Acompanhe SL-24 PLAT em tempo real com AllMySat

Download on the App Store